This demonstration page uses our WeatherBlox Daily Observations layout. Learn more.

39.29038, -76.61219

Hourly Observations for July 14, 2015

Temp ( °F °C ) Dew Point ( °F °C ) Humidity (%) Winds ( mph kmh ) Pressure ( in mb ) Visibility ( mi km ) Precip ( " mm )
12:54 am 00:54 Mostly Cloudy 73 23 72 22 94 94 undefined N/A 29.74 1007 N/A 0.01 0.254
1:54 am 01:54 Mostly Cloudy 73 23 72 22 94 94 undefined N/A 29.74 1007 N/A 0 0
2:54 am 02:54 Clear 75 24 72 22 89 89 undefined N/A 29.71 1006 N/A 0 0
3:54 am 03:54 undefined 75 24 72 22 89 89 undefined N/A 29.68 1005 N/A 0 0
4:54 am 04:54 Partly Cloudy 75 24 72 22 89 89 undefined N/A 29.68 1005 N/A 0 0
5:54 am 05:54 undefined 75 24 72 22 89 89 undefined N/A 29.68 1005 N/A 0.02 0.508
6:54 am 06:54 Cloudy 75 24 72 22 89 89 undefined N/A 29.68 1005 N/A 0 0
7:54 am 07:54 Sunny 75 24 72 22 89 89 undefined N/A 29.68 1005 N/A 0 0
8:54 am 08:54 undefined 79 26 70 21 74 74 undefined N/A 29.65 1004 N/A 0 0
9:54 am 09:54 Mostly Cloudy 79 26 70 21 74 74 undefined N/A 29.65 1004 N/A 0 0
10:54 am 10:54 Mostly Cloudy 82 28 70 21 66 66 undefined N/A 29.65 1004 N/A 0 0
11:54 am 11:54 undefined 82 28 70 21 66 66 undefined N/A 29.62 1003 N/A 0 0
12:54 pm 12:54 Mostly Cloudy 84 29 66 19 55 55 undefined N/A 29.62 1003 N/A 0 0
1:54 pm 13:54 undefined 86 30 68 20 55 55 undefined N/A 29.62 1003 N/A 0 0
2:54 pm 14:54 Mostly Cloudy 88 31 72 22 59 59 undefined N/A 29.59 1002 N/A 0 0
3:54 pm 15:54 Mostly Cloudy 88 31 68 20 52 52 undefined N/A 29.56 1001 N/A 0 0
4:54 pm 16:54 Mostly Sunny 88 31 66 19 49 49 undefined N/A 29.56 1001 N/A 0 0
5:54 pm 17:54 Mostly Cloudy 88 31 64 18 46 46 undefined N/A 29.56 1001 N/A 0 0
6:54 pm 18:54 Mostly Cloudy 84 29 72 22 66 66 undefined N/A 29.53 1000 N/A 0 0
7:54 pm 19:54 undefined 84 29 72 22 66 66 undefined N/A 29.53 1000 N/A 0 0
8:54 pm 20:54 undefined 82 28 70 21 66 66 undefined N/A 29.56 1001 N/A 0 0
9:54 pm 21:54 undefined 82 28 72 22 70 70 undefined N/A 29.56 1001 N/A 0 0
10:54 pm 22:54 undefined 81 27 72 22 74 74 undefined N/A 29.56 1001 N/A 0 0
11:54 pm 23:54 Partly Cloudy 81 27 72 22 74 74 undefined N/A 29.56 1001 N/A 0 0

Powered by AerisWeather